sat.trackr.live / text

‹ back to catalog

HAWK-11B

NORAD 62379 · 2024-247C

PAYLOAD ACTIVE UNKNOWN

§ Identity

Operator
Country
US
Launch date
2024-12-21
Launch site
AFWTR
Launch vehicle
Mass (kg)
RCS (m²)

External: N2YO · Heavens-Above · Gunter

§ Orbital elements

Epoch: 2026-09-21T00:37:23.153952Z

Period
94.03 min
Inclination
45.0140°
Eccentricity
0.0001546
Mean motion
15.31429030 rev/d
Perigee alt
470.5 km
Apogee alt
472.6 km
Semi-major
6,849.7 km
B*
1.6198e-4
RAAN
124.0238°
Arg perigee
74.0173°
Mean anomaly
286.0882°
Rev number
9,769

§ Raw data

HAWK-11B1 62379U 24247C   26264.02596243  .00004706  00000+0  16198-3 0  99912 62379  45.0140 124.0238 0001546  74.0173 286.0882 15.31429030 97694

JSON: /api/v1/satellites/62379 · /tle

For live sub-satellite position, see the globe view (requires WebGL).

§ Visibility from observer

Set your observer location to see the next 7 days of passes ≥ 10°. The values pass through the URL so the page stays shareable.

No JS? Fill the form by hand. The geolocation button needs JavaScript.